Home > Weather > Oakville > Past weeks

Flag for Canada Past Weather in Oakville, Ontario, Canada — Yesterday and Last 2 Weeks

Now
79 °F

Warm.


Feels Like: 82 °F
Forecast: 74 / 89 °F
Wind: 6 mph from Southwest

Location: Burlington Piers

Current Time: Jul 25, 2016 at 2:08:29 PM

Latest Report: Jul 25, 2016 at 1:00 PM


Visibility: N/A

Pressure: 29.84 "Hg

Humidity: 83%

Dew Point: 73 °F

Location of OakvilleLocation

Past Weather in Oakville — Graph

°F

Oakville Temperature Yesterday

Maximum temperature yesterday: 77 °F (at 1:00 AM)
Minimum temperature yesterday: 66 °F (at 1:00 PM)
Average temperature yesterday: 70 °F

High & Low Weather Summary for the Past Weeks

 TemperatureHumidityPressure
High91 °F (Jul 22, 5:00 PM)98% (Jul 11, 4:00 PM)30.28 "Hg (Jul 11, 4:00 PM)
Low60 °F (Jul 16, 8:00 AM)26% (Jul 23, 4:00 PM)29.72 "Hg (Jul 14, 6:00 PM)
Average74 °F64%29.98 "Hg
* Reported Jul 10 1:00 PM — Jul 25 1:00 PM, Oakville, Weather by CustomWeather, © 2016

Note: Actual official high and low records may vary slightly from our data, if they occured in-between our weather recording intervals... More about our weather records

Advertising

Oakville Weather History for the Previous 24 Hours

Scroll right to see more
 ConditionsComfort  
Time TempWeatherWind HumidityBarometerVisibility
1:00 PM
Mon, Jul 25
79 °FWarm.6 mph83%29.84 "HgN/A
12:00 PM78 °FWarm.5 mph83%29.85 "HgN/A
11:00 AM78 °FWarm.2 mph83%29.83 "HgN/A
10:00 AM75 °FMild.3 mph85%29.84 "HgN/A
9:00 AM74 °FMild.9 mph87%29.83 "HgN/A
8:00 AM73 °FMild.7 mph89%29.82 "HgN/A
7:00 AM73 °FMild.5 mph82%29.81 "HgN/A
6:00 AM71 °FMild.8 mph95%29.84 "HgN/A
5:00 AM76 °FMild.2 mph83%29.83 "HgN/A
4:00 AM76 °FMild.6 mph83%29.83 "HgN/A
3:00 AM73 °FMild.2 mph93%29.85 "HgN/A
2:00 AM69 °FMild.1 mph94%29.85 "HgN/A
1:00 AM69 °FMild.No wind95%29.88 "HgN/A
12:00 AM68 °FMild.3 mph93%29.88 "HgN/A
11:00 PM
Sun, Jul 24
68 °FMild.1 mph95%29.90 "HgN/A
10:00 PM68 °FMild.2 mph93%29.92 "HgN/A
9:00 PM69 °FMild.6 mph93%29.91 "HgN/A
8:00 PM69 °FMild.6 mph92%29.92 "HgN/A
7:00 PM70 °FMild.7 mph91%29.93 "HgN/A
6:00 PM67 °FMild.5 mph96%29.93 "HgN/A
5:00 PM68 °FMild.8 mph91%29.94 "HgN/A
4:00 PM67 °FMild.8 mph92%29.95 "HgN/A
3:00 PM67 °FMild.8 mph90%29.96 "HgN/A
2:00 PM66 °FMild.12 mph89%29.97 "HgN/A
Weather by CustomWeather, © 2016

See weather overviewHow to use our weather pages